TimeCDT,TemperatureF,Dew PointF,Humidity,Sea Level PressureIn,VisibilityMPH,Wind Direction,Wind SpeedMPH,Gust SpeedMPH,PrecipitationIn,Events,Conditions,WindDirDegrees,DateUTC
12:14 AM,39.2,24.8,56,29.90,10.0,South,10.4,-,N/A,,Clear,170,2012-10-08 05:14:00
12:34 AM,39.2,24.8,56,29.89,10.0,South,8.1,-,N/A,,Clear,170,2012-10-08 05:34:00
12:54 AM,39.2,24.8,56,29.89,10.0,South,6.9,-,N/A,,Clear,170,2012-10-08 05:54:00
1:14 AM,39.2,24.8,56,29.89,10.0,SSE,8.1,-,N/A,,Clear,160,2012-10-08 06:14:00
1:34 AM,39.2,26.6,61,29.88,10.0,South,6.9,-,N/A,,Clear,170,2012-10-08 06:34:00
1:54 AM,39.2,26.6,61,29.88,10.0,South,6.9,-,N/A,,Clear,170,2012-10-08 06:54:00
2:14 AM,39.2,26.6,61,29.88,10.0,South,6.9,-,N/A,,Clear,170,2012-10-08 07:14:00
2:34 AM,39.2,26.6,61,29.88,10.0,South,5.8,-,N/A,,Clear,170,2012-10-08 07:34:00
2:54 AM,37.4,26.6,65,29.87,10.0,South,6.9,-,N/A,,Clear,170,2012-10-08 07:54:00
3:14 AM,37.4,26.6,65,29.86,10.0,South,5.8,-,N/A,,Clear,170,2012-10-08 08:14:00
3:34 AM,37.4,26.6,65,29.86,10.0,SSE,4.6,-,N/A,,Clear,160,2012-10-08 08:34:00
3:54 AM,37.4,26.6,65,29.85,10.0,South,5.8,-,N/A,,Clear,170,2012-10-08 08:54:00
4:14 AM,39.2,26.6,61,29.85,10.0,South,5.8,-,N/A,,Clear,170,2012-10-08 09:14:00
4:34 AM,37.4,26.6,65,29.84,10.0,South,6.9,-,N/A,,Clear,170,2012-10-08 09:34:00
4:54 AM,37.4,26.6,65,29.84,10.0,South,6.9,-,N/A,,Clear,170,2012-10-08 09:54:00
5:14 AM,39.2,28.4,65,29.84,10.0,South,6.9,-,N/A,,Clear,170,2012-10-08 10:14:00
5:34 AM,39.2,28.4,65,29.83,10.0,South,6.9,-,N/A,,Clear,170,2012-10-08 10:34:00
5:54 AM,39.2,28.4,65,29.83,10.0,South,5.8,-,N/A,,Clear,170,2012-10-08 10:54:00
6:14 AM,39.2,28.4,65,29.82,10.0,South,5.8,-,N/A,,Clear,170,2012-10-08 11:14:00
6:34 AM,39.2,28.4,65,29.82,10.0,South,8.1,-,N/A,,Scattered Clouds,170,2012-10-08 11:34:00
6:54 AM,39.2,28.4,65,29.82,10.0,South,8.1,-,N/A,,Mostly Cloudy,170,2012-10-08 11:54:00
7:14 AM,39.2,30.2,70,29.82,10.0,South,9.2,-,N/A,,Overcast,170,2012-10-08 12:14:00
7:34 AM,39.2,30.2,70,29.81,10.0,South,8.1,-,N/A,,Scattered Clouds,180,2012-10-08 12:34:00
7:54 AM,41.0,30.2,65,29.80,10.0,South,10.4,-,N/A,,Scattered Clouds,170,2012-10-08 12:54:00
8:14 AM,42.8,30.2,61,29.79,10.0,SSE,11.5,-,N/A,,Scattered Clouds,160,2012-10-08 13:14:00
8:34 AM,42.8,32.0,66,29.79,10.0,South,12.7,17.3,N/A,,Scattered Clouds,170,2012-10-08 13:34:00
8:54 AM,44.6,32.0,61,29.79,10.0,South,10.4,-,N/A,,Mostly Cloudy,170,2012-10-08 13:54:00
9:14 AM,44.6,33.8,66,29.79,10.0,South,12.7,17.3,N/A,,Overcast,180,2012-10-08 14:14:00
9:34 AM,44.6,33.8,66,29.79,7.0,South,10.4,-,N/A,,Overcast,170,2012-10-08 14:34:00
9:54 AM,46.4,33.8,62,29.79,10.0,South,9.2,-,N/A,,Mostly Cloudy,170,2012-10-08 14:54:00
10:14 AM,46.4,33.8,62,29.78,7.0,South,12.7,-,N/A,,Scattered Clouds,170,2012-10-08 15:14:00
10:34 AM,46.4,33.8,62,29.77,10.0,South,17.3,20.7,N/A,,Mostly Cloudy,170,2012-10-08 15:34:00
10:54 AM,48.2,35.6,62,29.76,10.0,South,13.8,21.9,N/A,,Mostly Cloudy,170,2012-10-08 15:54:00
11:14 AM,50.0,35.6,58,29.75,7.0,South,16.1,-,N/A,,Scattered Clouds,170,2012-10-08 16:14:00
11:34 AM,51.8,35.6,54,29.75,10.0,South,11.5,20.7,N/A,,Scattered Clouds,180,2012-10-08 16:34:00
11:54 AM,53.6,35.6,51,29.74,10.0,South,11.5,18.4,N/A,,Mostly Cloudy,180,2012-10-08 16:54:00
12:14 PM,55.4,35.6,47,29.73,10.0,South,13.8,19.6,N/A,,Overcast,180,2012-10-08 17:14:00
12:54 PM,57.2,35.6,44,29.70,10.0,South,13.8,23.0,N/A,,Mostly Cloudy,180,2012-10-08 17:54:00
1:14 PM,57.2,35.6,44,29.68,10.0,South,15.0,25.3,N/A,,Scattered Clouds,180,2012-10-08 18:14:00
1:34 PM,60.8,35.6,39,29.67,10.0,South,15.0,20.7,N/A,,Mostly Cloudy,180,2012-10-08 18:34:00
1:54 PM,60.8,35.6,39,29.66,10.0,South,13.8,20.7,N/A,,Scattered Clouds,180,2012-10-08 18:54:00
2:14 PM,62.6,37.4,39,29.66,10.0,South,13.8,25.3,N/A,,Mostly Cloudy,190,2012-10-08 19:14:00
2:34 PM,62.6,35.6,37,29.66,10.0,SSW,16.1,25.3,N/A,,Mostly Cloudy,200,2012-10-08 19:34:00
2:54 PM,62.6,35.6,37,29.65,10.0,South,13.8,23.0,N/A,,Mostly Cloudy,190,2012-10-08 19:54:00
3:14 PM,62.6,35.6,37,29.64,10.0,South,13.8,23.0,N/A,,Scattered Clouds,180,2012-10-08 20:14:00
3:33 PM,62.6,35.6,37,29.63,10.0,South,11.5,24.2,N/A,,Mostly Cloudy,190,2012-10-08 20:33:00
3:54 PM,64.4,35.6,34,29.62,10.0,SSW,12.7,23.0,N/A,,Mostly Cloudy,200,2012-10-08 20:54:00
4:14 PM,64.4,33.8,32,29.63,10.0,SSW,13.8,23.0,N/A,,Mostly Cloudy,200,2012-10-08 21:14:00
4:34 PM,64.4,33.8,32,29.62,10.0,SSW,17.3,23.0,N/A,,Overcast,200,2012-10-08 21:34:00
4:54 PM,66.2,33.8,30,29.61,10.0,SSW,16.1,-,N/A,,Mostly Cloudy,210,2012-10-08 21:54:00
5:14 PM,66.2,33.8,30,29.62,10.0,SW,19.6,24.2,N/A,,Mostly Cloudy,220,2012-10-08 22:14:00
5:34 PM,66.2,33.8,30,29.62,10.0,SSW,13.8,19.6,N/A,,Overcast,210,2012-10-08 22:34:00
5:54 PM,66.2,37.4,35,29.64,10.0,WSW,19.6,29.9,N/A,,Overcast,250,2012-10-08 22:54:00
6:14 PM,64.4,37.4,37,29.64,10.0,WSW,11.5,18.4,N/A,,Overcast,240,2012-10-08 23:14:00
6:34 PM,64.4,37.4,37,29.64,10.0,SW,9.2,18.4,N/A,,Mostly Cloudy,230,2012-10-08 23:34:00
7:14 PM,62.6,39.2,42,29.67,10.0,West,10.4,-,N/A,,Mostly Cloudy,260,2012-10-09 00:14:00
7:34 PM,60.8,42.8,52,29.68,10.0,West,9.2,17.3,N/A,,Scattered Clouds,270,2012-10-09 00:34:00
7:54 PM,60.8,42.8,52,29.68,10.0,West,8.1,-,N/A,,Scattered Clouds,260,2012-10-09 00:54:00
8:14 PM,57.2,42.8,59,29.69,10.0,WSW,4.6,-,N/A,,Clear,250,2012-10-09 01:14:00
8:34 PM,57.2,42.8,59,29.70,10.0,West,17.3,25.3,N/A,,Clear,280,2012-10-09 01:34:00
9:14 PM,55.4,42.8,63,29.73,10.0,West,9.2,-,N/A,,Scattered Clouds,280,2012-10-09 02:14:00
9:34 PM,55.4,42.8,63,29.73,10.0,West,8.1,-,N/A,,Scattered Clouds,270,2012-10-09 02:34:00
9:55 PM,55.4,41.0,58,29.74,10.0,West,8.1,-,N/A,,Scattered Clouds,280,2012-10-09 02:55:00
10:14 PM,55.4,41.0,58,29.75,10.0,West,5.8,-,N/A,,Mostly Cloudy,280,2012-10-09 03:14:00
10:54 PM,53.6,42.8,67,29.76,10.0,West,5.8,-,N/A,,Overcast,280,2012-10-09 03:54:00
11:14 PM,53.6,42.8,67,29.76,10.0,Calm,Calm,-,N/A,,Mostly Cloudy,0,2012-10-09 04:14:00
11:34 PM,53.6,42.8,67,29.76,10.0,Calm,Calm,-,N/A,,Scattered Clouds,0,2012-10-09 04:34:00
11:54 PM,51.8,42.8,71,29.77,10.0,Calm,Calm,-,N/A,,Scattered Clouds,0,2012-10-09 04:54:00